Sturgeon Bay, WI

2:37 AM CDT on October 15, 2019 (GMT -0500)
Door County Cherryland

Weather History for KSUE - September, 2019

Change the Weather History Date:

Monday, September 16, 2019

  Actual Average Record
Temperature  
Mean Temperature 63 °F -  
Max Temperature 70 °F 67 °F 82 °F (1955)
Min Temperature 55 °F 48 °F 34 °F (1916)
Degree Days  
Heating Degree Days 2    
Growing Degree Days 13 (Base 50)    
Moisture  
Dew Point 61 °F    
Average Humidity 97    
Maximum Humidity 100    
Minimum Humidity 83    
Precipitation  
Precipitation 0.00 in - - ()
Sea Level Pressure  
Sea Level Pressure 30.13 in    
Wind  
Wind Speed - (North)    
Max Wind Speed -    
Max Gust Speed -    
Visibility 4 miles    
Events Fog    
Averages and records for this station are not official NWS values.
T = Trace of Precipitation, MM = Missing Value Source: NWS Daily Summary

Daily Weather History Graph

Daily Weather History Graph

Search for Another Location

Airport or City:

Astronomy

Sep. 16, 2019 Rise Set
Actual Time 6:29 AM CDT 6:58 PM CDT
Civil Twilight 5:59 AM CDT 7:28 PM CDT
Nautical Twilight 5:25 AM CDT 8:02 PM CDT
Astronomical Twilight 4:49 AM CDT 8:38 PM CDT
Moon 8:28 PM CDT (9/16) 8:39 AM CDT (9/16)
Length of Visible Light 13h 28m
Length of Day
12h 29m
Waning Gibbous, 94% of the Moon is Illuminated
Sep 16
Waning Gibbous
Sep 21
Last Quarter
Sep 28
New
Oct 5
First Quarter
Oct 13
Full

Hourly Weather History & Observations

Time (CDT) Temp. Dew Point Humidity Pressure Visibility Wind Dir Wind Speed Gust Speed Precip Events Conditions
12:53 AM 60.8 °F 60.8 °F 100% 30.06 in 2.5 mi North - - N/A   Scattered Clouds
12:56 AM 60.1 °F 60.1 °F 100% 30.06 in 1.8 mi North - - N/A   Scattered Clouds
1:23 AM 60.8 °F 60.8 °F 100% 30.07 in 0.8 mi North - - N/A   Clear
1:35 AM 60.8 °F 60.8 °F 100% 30.07 in 1.2 mi North - - N/A   Clear
1:56 AM 60.1 °F 60.1 °F 100% 30.07 in 1.8 mi North - - N/A   Partly Cloudy
1:58 AM 60.8 °F 60.8 °F 100% 30.07 in 3.0 mi North - - N/A   Partly Cloudy
2:20 AM 60.8 °F 60.8 °F 100% 30.08 in 7.0 mi North - - N/A   Mostly Cloudy
2:56 AM 61.0 °F 61.0 °F 100% 30.07 in 7.0 mi North - - N/A   Overcast
3:10 AM 60.8 °F 60.8 °F 100% 30.08 in 5.0 mi North - - N/A   Overcast
3:56 AM 60.1 °F 60.1 °F 100% 30.09 in 4.0 mi North - - N/A   Overcast
4:41 AM 60.8 °F 60.8 °F 100% 30.10 in 2.5 mi North - - N/A   Overcast
4:56 AM 61.0 °F 61.0 °F 100% 30.10 in 1.5 mi North - - N/A   Overcast
5:03 AM 60.8 °F 60.8 °F 100% 30.10 in 0.8 mi North - - N/A   Overcast
5:21 AM 60.8 °F 60.8 °F 100% 30.10 in 0.5 mi North - - N/A Fog Fog
5:56 AM 61.0 °F 61.0 °F 100% 30.11 in 0.8 mi North - - N/A   Overcast
6:02 AM 60.8 °F 60.8 °F 100% 30.11 in 1.2 mi North - - N/A   Overcast
6:11 AM 60.8 °F 60.8 °F 100% 30.11 in 3.0 mi North - - N/A   Overcast
6:56 AM 61.0 °F 61.0 °F 100% 30.13 in 6.0 mi North - - N/A   Overcast
7:32 AM 62.6 °F 60.8 °F 94% 30.14 in 8.0 mi North - - N/A   Overcast
7:56 AM 62.1 °F 61.0 °F 96% 30.14 in 6.0 mi North - - N/A   Overcast
8:24 AM 62.6 °F 62.6 °F 100% 30.15 in 1.8 mi North - - N/A   Overcast
8:31 AM 62.6 °F 62.6 °F 100% 30.15 in 2.0 mi North - - N/A   Overcast
8:56 AM 63.0 °F 62.1 °F 97% 30.15 in 6.0 mi North - - N/A   Overcast
9:18 AM 62.6 °F 62.6 °F 100% 30.15 in 2.5 mi North - - N/A   Overcast
9:36 AM 62.6 °F 62.6 °F 100% 30.15 in 1.0 mi North - - N/A   Overcast
9:45 AM 62.6 °F 62.6 °F 100% 30.16 in 1.8 mi North - - N/A   Overcast
9:49 AM 62.6 °F 62.6 °F 100% 30.16 in 3.0 mi North - - N/A   Overcast
9:56 AM 63.0 °F 62.1 °F 97% 30.16 in 5.0 mi North - - N/A   Overcast
10:40 AM 64.4 °F 62.6 °F 94% 30.16 in 2.5 mi North - - N/A   Overcast
10:54 AM 62.6 °F 62.6 °F 100% 30.16 in 4.0 mi North - - N/A   Overcast
10:56 AM 64.0 °F 63.0 °F 96% 30.16 in 4.0 mi North - - N/A   Overcast
11:56 AM 66.9 °F 64.0 °F 90% 30.16 in 10.0 mi North - - N/A   Overcast
12:27 PM 69.8 °F 64.4 °F 83% 30.16 in 10.0 mi North - - N/A   Mostly Cloudy
12:41 PM 69.8 °F 64.4 °F 83% 30.15 in 10.0 mi North - - N/A   Mostly Cloudy
12:56 PM 68.0 °F 64.0 °F 87% 30.15 in 10.0 mi North - - N/A   Overcast
1:56 PM 68.0 °F 64.0 °F 87% 30.15 in 8.0 mi North - - N/A   Overcast
2:56 PM 66.9 °F 63.0 °F 87% 30.15 in 10.0 mi North - - N/A   Mostly Cloudy
3:56 PM 68.0 °F 63.0 °F 84% 30.14 in 10.0 mi North - - N/A   Mostly Cloudy
4:08 PM 68.0 °F 62.6 °F 83% 30.14 in 10.0 mi North - - N/A   Partly Cloudy
4:56 PM 66.0 °F 62.1 °F 87% 30.13 in 10.0 mi North - - N/A   Clear
5:41 PM 60.8 °F 60.8 °F 100% 30.14 in 2.5 mi North - - N/A   Scattered Clouds
5:56 PM 61.0 °F 60.1 °F 97% 30.14 in 1.2 mi North - - N/A   Mostly Cloudy
6:09 PM 60.8 °F 60.8 °F 100% 30.14 in 0.5 mi North - - N/A Fog Fog
6:16 PM 60.8 °F 60.8 °F 100% 30.14 in 1.0 mi North - - N/A   Overcast
6:26 PM 60.8 °F 60.8 °F 100% 30.14 in 0.5 mi North - - N/A Fog Fog
6:56 PM 59.0 °F 59.0 °F 100% 30.14 in 0.5 mi North - - N/A Fog Fog
7:15 PM 59.0 °F 59.0 °F 100% 30.14 in 0.2 mi North - - N/A Fog Fog
7:36 PM 59.0 °F 57.2 °F 94% 30.14 in 0.5 mi North - - N/A Fog Fog
7:56 PM 57.9 °F 57.9 °F 100% 30.15 in 0.5 mi North - - N/A Fog Fog
8:56 PM 57.0 °F 57.0 °F 100% 30.15 in 0.5 mi North - - N/A Fog Fog
9:32 PM 57.2 °F 57.2 °F 100% 30.15 in 0.5 mi North - - N/A Fog Fog
9:56 PM 57.0 °F 57.0 °F 100% 30.16 in 0.5 mi North - - N/A Fog Fog
10:56 PM 57.0 °F 55.9 °F 96% 30.17 in 0.5 mi North - - N/A Fog Fog
11:56 PM 55.9 °F 55.9 °F 100% 30.16 in 0.5 mi North - - N/A Fog Fog